When you browse on this site, cookies collect data to enhance your experience and personalize the content and advertising you see.
Visit our Privacy Policy to learn more. By continuing to use the site, you agree to this use of cookies and data.

Hourly Weather Trisvyate

Today, 13 July, Monday

Time Temperature Precipitation Wind Pressure Humidity
00:00 +12°C° 0 mm 3 mps 741 mmHg 84%
01:00 +12°C° 0 mm 3 mps 741 mmHg 82%
02:00 +12°C° 0 mm 3 mps 741 mmHg 82%
03:00 +12°C° 0 mm 3 mps 740 mmHg 82%
04:00 +12°C° 0 mm 4 mps 740 mmHg 82%
05:00 +12°C° 0 mm 4 mps 740 mmHg 82%
06:00 +12°C° 0.2 mm 4 mps 740 mmHg 85%
07:00 +12°C° 0.2 mm 3 mps 740 mmHg 87%
08:00 +12°C° 0 mm 3 mps 740 mmHg 88%
09:00 +12°C° 0.4 mm 3 mps 740 mmHg 90%
10:00 +12°C° 0.4 mm 4 mps 739 mmHg 91%
11:00 +12°C° 0.4 mm 4 mps 739 mmHg 93%
12:00 +11°C° 1.2 mm 4 mps 739 mmHg 94%
13:00 +11°C° 1.2 mm 4 mps 739 mmHg 95%
14:00 +13°C° 0 mm 2 mps 739 mmHg 99%
15:00 +14°C° 0.2 mm 2 mps 739 mmHg 95%
16:00 +14°C° 0.2 mm 2 mps 739 mmHg 92%
17:00 +14°C° 0.2 mm 2 mps 738 mmHg 89%
18:00 +14°C° 0.1 mm 2 mps 738 mmHg 91%
19:00 +14°C° 0.1 mm 2 mps 739 mmHg 93%
20:00 +13°C° 0.1 mm 2 mps 739 mmHg 95%
21:00 +13°C° 0 mm 2 mps 738 mmHg 95%
22:00 +12°C° 0 mm 2 mps 738 mmHg 96%
23:00 +12°C° 0 mm 2 mps 738 mmHg 97%

Tomorrow, 14 July, Tuesday

Time Temperature Precipitation Wind Pressure Humidity
00:00 +12°C° 0 mm 2 mps 738 mmHg 97%
01:00 +10°C° 0 mm 2 mps 738 mmHg 97%
02:00 +10°C° 0 mm 2 mps 738 mmHg 97%
03:00 +10°C° 0 mm 3 mps 738 mmHg 96%
04:00 +11°C° 0 mm 3 mps 738 mmHg 95%
05:00 +11°C° 0 mm 3 mps 738 mmHg 94%
06:00 +12°C° 0 mm 4 mps 738 mmHg 89%
07:00 +13°C° 0 mm 4 mps 738 mmHg 84%
08:00 +14°C° 0 mm 4 mps 738 mmHg 79%
09:00 +17°C° 0 mm 4 mps 738 mmHg 73%
10:00 +17°C° 0 mm 5 mps 738 mmHg 67%
11:00 +19°C° 0 mm 5 mps 738 mmHg 61%
12:00 +20°C° 0 mm 5 mps 738 mmHg 60%
13:00 +20°C° 0 mm 5 mps 737 mmHg 60%
14:00 +20°C° 0 mm 5 mps 737 mmHg 60%
15:00 +20°C° 0.1 mm 4 mps 737 mmHg 64%
16:00 +19°C° 0.1 mm 4 mps 737 mmHg 68%
17:00 +19°C° 0.1 mm 4 mps 736 mmHg 73%
18:00 +18°C° 0.1 mm 4 mps 736 mmHg 75%
19:00 +17°C° 0.1 mm 4 mps 736 mmHg 77%
20:00 +15°C° 0.1 mm 4 mps 735 mmHg 79%
21:00 +15°C° 0 mm 4 mps 735 mmHg 75%
22:00 +15°C° 0 mm 4 mps 735 mmHg 70%
23:00 +14°C° 0 mm 4 mps 735 mmHg 66%

Day after tomorrow, 15 July, Wednesday

Time Temperature Precipitation Wind Pressure Humidity
00:00 +14°C° 0.1 mm 4 mps 735 mmHg 68%
01:00 +13°C° 0.1 mm 4 mps 734 mmHg 71%
02:00 +13°C° 0.1 mm 4 mps 734 mmHg 73%
03:00 +12°C° 0.2 mm 5 mps 734 mmHg 78%
04:00 +12°C° 0.2 mm 5 mps 734 mmHg 83%
05:00 +12°C° 0.2 mm 5 mps 734 mmHg 89%
06:00 +10°C° 1.1 mm 5 mps 734 mmHg 88%
07:00 +10°C° 1.1 mm 5 mps 734 mmHg 88%
08:00 +10°C° 1.1 mm 5 mps 734 mmHg 88%
09:00 +10°C° 1.9 mm 5 mps 734 mmHg 90%
10:00 +10°C° 1.9 mm 6 mps 734 mmHg 92%
11:00 +9°C° 1.9 mm 6 mps 734 mmHg 94%
12:00 +9°C° 0.9 mm 6 mps 735 mmHg 94%
13:00 +10°C° 0.9 mm 5 mps 735 mmHg 94%
14:00 +10°C° 0.9 mm 5 mps 736 mmHg 94%
15:00 +10°C° 0.2 mm 5 mps 736 mmHg 93%
16:00 +10°C° 0.2 mm 5 mps 736 mmHg 93%
17:00 +9°C° 0.2 mm 5 mps 737 mmHg 92%
18:00 +10°C° 0 mm 4 mps 737 mmHg 91%
19:00 +10°C° 0 mm 3 mps 737 mmHg 89%
20:00 +10°C° 0 mm 2 mps 737 mmHg 88%
21:00 +10°C° 0 mm 3 mps 737 mmHg 88%
22:00 +10°C° 0 mm 3 mps 737 mmHg 89%
23:00 +10°C° 0 mm 3 mps 737 mmHg 89%

16 July, Thursday

Time Temperature Precipitation Wind Pressure Humidity
00:00 +10°C° 0 mm 3 mps 737 mmHg 87%
01:00 +10°C° 0 mm 4 mps 737 mmHg 86%
02:00 +11°C° 0 mm 4 mps 737 mmHg 84%
03:00 +11°C° 0 mm 3 mps 737 mmHg 85%
04:00 +11°C° 0 mm 3 mps 737 mmHg 86%
05:00 +11°C° 0 mm 3 mps 737 mmHg 87%
06:00 +13°C° 0 mm 3 mps 737 mmHg 81%
07:00 +14°C° 0 mm 3 mps 737 mmHg 75%
08:00 +17°C° 0 mm 4 mps 737 mmHg 70%
09:00 +18°C° 0 mm 4 mps 737 mmHg 66%
10:00 +19°C° 0 mm 4 mps 737 mmHg 63%
11:00 +20°C° 0 mm 4 mps 737 mmHg 60%
12:00 +21°C° 0 mm 4 mps 738 mmHg 59%
13:00 +21°C° 0 mm 4 mps 738 mmHg 58%
14:00 +21°C° 0 mm 4 mps 738 mmHg 58%
15:00 +21°C° 0 mm 4 mps 738 mmHg 60%
16:00 +21°C° 0 mm 3 mps 737 mmHg 63%
17:00 +21°C° 0 mm 3 mps 737 mmHg 65%
18:00 +19°C° 0 mm 2 mps 737 mmHg 71%
19:00 +18°C° 0 mm 2 mps 737 mmHg 77%
20:00 +16°C° 0 mm 2 mps 737 mmHg 83%
21:00 +15°C° 0 mm 1 mps 737 mmHg 84%
22:00 +14°C° 0 mm 1 mps 738 mmHg 86%
23:00 +13°C° 0 mm 1 mps 738 mmHg 88%

17 July, Friday

Time Temperature Precipitation Wind Pressure Humidity
00:00 +13°C° 0 mm 1 mps 738 mmHg 89%
01:00 +13°C° 0 mm 1 mps 738 mmHg 91%
02:00 +12°C° 0 mm 1 mps 738 mmHg 92%
03:00 +12°C° 0 mm 1 mps 738 mmHg 91%
04:00 +13°C° 0 mm 1 mps 738 mmHg 91%
05:00 +13°C° 0 mm 1 mps 738 mmHg 90%
06:00 +15°C° 0 mm 1 mps 738 mmHg 83%
07:00 +18°C° 0 mm 1 mps 738 mmHg 77%
08:00 +20°C° 0 mm 1 mps 739 mmHg 70%
09:00 +21°C° 0 mm 1 mps 739 mmHg 66%
10:00 +23°C° 0 mm 1 mps 739 mmHg 62%
11:00 +24°C° 0 mm 1 mps 739 mmHg 58%
12:00 +24°C° 0 mm 1 mps 739 mmHg 57%
13:00 +24°C° 0 mm 1 mps 739 mmHg 57%
14:00 +24°C° 0 mm 1 mps 739 mmHg 56%
15:00 +24°C° 0 mm 1 mps 739 mmHg 57%
16:00 +24°C° 0 mm 1 mps 739 mmHg 58%
17:00 +24°C° 0 mm 1 mps 739 mmHg 60%
18:00 +22°C° 0 mm 1 mps 739 mmHg 66%
19:00 +20°C° 0 mm 1 mps 739 mmHg 72%
20:00 +18°C° 0 mm 1 mps 739 mmHg 79%
21:00 +16°C° 0 mm 1 mps 739 mmHg 81%
22:00 +16°C° 0 mm 1 mps 739 mmHg 83%
23:00 +15°C° 0 mm 1 mps 740 mmHg 86%

18 July, Saturday

Time Temperature Precipitation Wind Pressure Humidity
00:00 +14°C° 0 mm 1 mps 740 mmHg 87%
01:00 +14°C° 0 mm 1 mps 740 mmHg 87%
02:00 +14°C° 0 mm 1 mps 740 mmHg 88%
03:00 +14°C° 0 mm 1 mps 740 mmHg 88%
04:00 +14°C° 0 mm 2 mps 740 mmHg 88%
05:00 +14°C° 0 mm 2 mps 741 mmHg 88%
06:00 +15°C° 0 mm 2 mps 741 mmHg 83%
07:00 +17°C° 0 mm 2 mps 741 mmHg 78%
08:00 +19°C° 0 mm 2 mps 741 mmHg 73%
09:00 +20°C° 0 mm 2 mps 741 mmHg 67%
10:00 +21°C° 0 mm 2 mps 742 mmHg 61%
11:00 +24°C° 0 mm 2 mps 742 mmHg 55%
12:00 +24°C° 0 mm 2 mps 742 mmHg 53%
13:00 +24°C° 0 mm 2 mps 742 mmHg 51%
14:00 +25°C° 0 mm 2 mps 742 mmHg 49%
15:00 +24°C° 0 mm 2 mps 742 mmHg 53%
16:00 +24°C° 0 mm 2 mps 741 mmHg 56%
17:00 +24°C° 0 mm 2 mps 741 mmHg 60%
18:00 +21°C° 0 mm 2 mps 741 mmHg 67%
19:00 +19°C° 0 mm 2 mps 741 mmHg 74%
20:00 +17°C° 0 mm 2 mps 742 mmHg 81%
21:00 +16°C° 0 mm 1 mps 742 mmHg 83%
22:00 +15°C° 0 mm 1 mps 742 mmHg 85%
23:00 +14°C° 0 mm 1 mps 742 mmHg 87%
Show more